GW6647 Weather Reports


time (UTC)temp
F
wind
direction
speed
knots
gust
knots
rain 1hr
in
rain 24hr
in
rain mn
in
humidity
%
barometer
mb
20260508115642 63 303 8.7 14.8 0.00 0.00 0.00 66 1013.6
20260508115138 64 302 7.8 14.8 0.00 0.00 0.00 65 1013.5
20260508114635 64 272 6.1 7.8 0.00 0.00 0.00 65 1013.4
20260508114131 64 317 9.6 13.0 0.00 0.00 0.00 64 1013.5
20260508113628 64 350 7.0 13.9 0.00 0.00 0.00 64 1013.2
20260508113127 64 330 7.8 11.3 0.00 0.00 0.00 64 1012.9
20260508112622 64 260 4.3 11.3 0.00 0.00 0.00 64 1012.7
20260508112120 64 309 6.1 9.6 0.00 0.00 0.00 65 1012.6
20260508111616 64 356 8.7 14.8 0.00 0.00 0.00 64 1012.6
20260508111113 64 341 7.8 11.3 0.00 0.00 0.00 64 1012.2
20260508110612 64 0 8.7 12.2 0.00 0.00 0.00 64 1012.0
20260508110108 64 335 10.4 13.9 0.00 0.00 0.00 65 1012.0
20260508105607 64 283 6.1 11.3 0.00 0.00 0.00 65 1011.9
20260508105105 64 333 7.8 11.3 0.00 0.00 0.00 65 1012.0
20260508104603 64 265 5.2 9.6 0.00 0.00 0.00 66 1011.7
20260508104059 64 279 6.1 7.8 0.00 0.00 0.00 65 1011.7
20260508103556 64 26 10.4 13.0 0.00 0.00 0.00 65 1011.6
20260508103053 65 314 9.6 12.2 0.00 0.00 0.00 65 1011.4
20260508102551 65 327 6.1 12.2 0.00 0.00 0.00 66 1011.2
20260508102048 65 324 7.8 12.2 0.00 0.00 0.00 65 1011.1
20260508101546 66 286 7.8 14.8 0.00 0.00 0.00 65 1011.0
20260508101043 67 23 7.0 12.2 0.00 0.00 0.00 65 1011.0
20260508100541 67 289 7.8 9.6 0.00 0.00 0.00 65 1010.9
20260508100037 67 329 7.8 9.6 0.00 0.00 0.00 65 1010.5
20260508095535 68 268 6.1 7.0 0.00 0.00 0.00 65 1010.5
20260508095031 68 316 5.2 9.6 0.00 0.00 0.00 64 1010.3
20260508094528 69 315 5.2 8.7 0.00 0.00 0.00 64 1010.4
20260508094025 70 8 10.4 13.0 0.00 0.00 0.00 61 1010.3
20260508093522 72 334 8.7 13.9 0.00 0.00 0.00 51 1010.0
20260508093020 72 316 4.3 6.1 0.00 0.00 0.00 49 1009.8
20260508092517 73 262 3.5 6.1 0.00 0.00 0.00 49 1009.6
20260508092016 73 272 7.0 8.7 0.00 0.00 0.00 48 1009.4
20260508091513 74 285 6.1 7.8 0.00 0.00 0.00 47 1009.3
20260508091009 74 214 4.3 11.3 0.00 0.00 0.00 46 1009.2
20260508090508 74 202 6.1 9.6 0.00 0.00 0.00 47 1009.1
20260508090004 75 234 5.2 12.2 0.00 0.00 0.00 47 1009.1
20260508085500 75 270 6.1 8.7 0.00 0.00 0.00 45 1008.9
20260508084957 75 280 7.8 13.0 0.00 0.00 0.00 45 1009.1
20260508084454 76 209 8.7 11.3 0.00 0.00 0.00 43 1008.8
20260508083952 76 322 8.7 13.0 0.00 0.00 0.00 42 1008.7
20260508083449 76 289 8.7 13.0 0.00 0.00 0.00 43 1008.6
20260508082944 76 281 7.0 8.7 0.00 0.00 0.00 42 1008.5
20260508082442 76 264 5.2 7.8 0.00 0.00 0.00 42 1008.5
20260508081939 76 287 6.1 12.2 0.00 0.00 0.00 42 1008.4
20260508081436 76 257 4.3 9.6 0.00 0.00 0.00 43 1008.5
20260508080932 76 291 4.3 6.1 0.00 0.00 0.00 43 1008.4
20260508080430 76 281 5.2 7.0 0.00 0.00 0.00 43 1008.4
20260508075926 75 312 6.1 8.7 0.00 0.00 0.00 42 1008.4
20260508075424 76 276 5.2 7.8 0.00 0.00 0.00 42 1008.3
20260508074921 76 290 8.7 13.0 0.00 0.00 0.00 41 1008.2
20260508074418 76 289 9.6 11.3 0.00 0.00 0.00 44 1008.4
20260508073915 76 315 3.5 7.8 0.00 0.00 0.00 45 1008.3
20260508073413 76 319 4.3 7.0 0.00 0.00 0.00 47 1008.2
20260508072910 76 239 3.5 6.1 0.00 0.00 0.00 48 1008.5
20260508072406 76 298 3.5 6.1 0.00 0.00 0.00 49 1008.3
20260508071903 76 276 5.2 7.8 0.00 0.00 0.00 49 1008.3
20260508071401 76 293 3.5 6.1 0.00 0.00 0.00 54 1008.4
20260508070859 76 216 2.6 2.6 0.00 0.00 0.00 53 1008.3
20260508070357 76 312 1.7 3.5 0.00 0.00 0.00 58 1008.4
20260508065854 76 274 7.0 8.7 0.00 0.00 0.00 52 1008.5
20260508065352 76 163 0.9 1.7 0.00 0.00 0.00 59 1008.5
20260508064850 75 260 0.9 2.6 0.00 0.00 0.00 60 1008.7
20260508064347 75 311 2.6 6.1 0.00 0.00 0.00 59 1008.9
20260508063845 75 168 0.0 0.9 0.00 0.00 0.00 70 1008.8
20260508063342 75 336 1.7 1.7 0.00 0.00 0.00 69 1008.7
20260508062839 74 114 0.0 0.9 0.00 0.00 0.00 71 1008.6
20260508062337 74 347 1.7 1.7 0.00 0.00 0.00 69 1008.7
20260508061833 75 308 2.6 2.6 0.00 0.00 0.00 69 1008.6
20260508061331 75 196 0.9 2.6 0.00 0.00 0.00 69 1008.7
20260508060827 74 152 0.0 1.7 0.00 0.00 0.00 70 1008.8
20260508060325 75 137 0.0 0.9 0.00 0.00 0.00 71 1008.9
20260508055820 75 245 0.9 1.7 0.00 0.00 0.00 70 1008.8
20260508055318 75 121 0.0 0.9 0.00 0.00 0.00 70 1008.8
20260508054814 75 17 0.9 1.7 0.00 0.00 0.00 70 1008.7
20260508054312 74 292 0.9 1.7 0.00 0.00 0.00 71 1008.8
20260508053808 74 150 0.0 0.0 0.00 0.00 0.00 72 1009.0
20260508053306 73 135 0.0 0.9 0.00 0.00 0.00 72 1009.1
20260508052803 73 134 0.9 0.9 0.00 0.00 0.00 73 1009.3
20260508052300 73 107 0.0 1.7 0.00 0.00 0.00 73 1009.1
20260508051756 73 102 0.0 1.7 0.00 0.00 0.00 72 1009.3
20260508051251 73 64 0.0 1.7 0.00 0.00 0.00 73 1009.2
20260508050748 73 55 1.7 2.6 0.00 0.00 0.00 72 1009.1
20260508050246 72 95 0.9 1.7 0.00 0.00 0.00 74 1009.1
20260508045741 73 60 1.7 1.7 0.00 0.00 0.00 73 1009.3
20260508045239 73 101 1.7 1.7 0.00 0.00 0.00 74 1009.4
20260508044736 73 92 0.9 1.7 0.00 0.00 0.00 73 1009.3
20260508044233 73 86 0.9 1.7 0.00 0.00 0.00 73 1009.2
20260508043729 73 76 0.9 3.5 0.00 0.00 0.00 74 1009.0
20260508043227 73 101 1.7 5.2 0.00 0.00 0.00 73 1009.1
20260508042723 73 81 0.0 3.5 0.00 0.00 0.00 74 1009.2
20260508042221 73 79 1.7 3.5 0.00 0.00 0.00 73 1009.4
20260508041717 73 79 0.9 2.6 0.00 0.00 0.00 73 1009.2
20260508041214 73 64 1.7 2.6 0.00 0.00 0.00 74 1009.1
20260508040710 73 67 1.7 2.6 0.00 0.00 0.00 74 1009.4
20260508040208 73 86 2.6 2.6 0.00 0.00 0.00 74 1009.3
20260508035705 73 65 0.9 1.7 0.00 0.00 0.00 74 1009.7
20260508035202 74 77 0.9 2.6 0.00 0.00 0.00 74 1009.7
20260508034659 74 136 0.0 0.9 0.00 0.00 0.00 74 1009.6
20260508034156 74 110 0.0 1.7 0.00 0.00 0.00 75 1009.8
20260508033653 74 109 1.7 3.5 0.00 0.00 0.00 74 1010.0
20260508033151 73 69 1.7 1.7 0.00 0.00 0.00 76 1009.9
20260508032648 73 52 1.7 2.6 0.00 0.00 0.00 76 1009.9
20260508032145 74 77 3.5 5.2 0.00 0.00 0.00 75 1009.9
20260508031642 74 100 0.9 2.6 0.00 0.00 0.00 76 1010.0
20260508031138 74 340 2.6 5.2 0.00 0.00 0.00 75 1010.1
20260508030635 73 306 2.6 3.5 0.00 0.00 0.00 77 1010.4
20260508030133 73 35 3.5 3.5 0.00 0.00 0.00 77 1010.4
20260508025629 73 32 2.6 3.5 0.00 0.00 0.00 77 1010.5
20260508025126 73 67 0.0 2.6 0.00 0.00 0.00 77 1010.4
20260508024621 73 15 4.3 5.2 0.00 0.00 0.00 78 1010.3
20260508024119 73 36 2.6 3.5 0.00 0.00 0.00 78 1010.3
20260508023615 73 36 1.7 2.6 0.00 0.00 0.00 77 1010.6
20260508023113 72 79 0.9 5.2 0.00 0.00 0.00 78 1010.2
20260508022608 73 20 4.3 7.0 0.00 0.00 0.00 78 1010.4
20260508022106 73 20 4.3 7.8 0.00 0.00 0.00 79 1010.5
20260508021601 73 6 3.5 6.1 0.00 0.00 0.00 77 1010.9
20260508021058 73 108 0.9 2.6 0.00 0.00 0.00 76 1010.8
20260508020555 74 333 2.6 2.6 0.00 0.00 0.00 75 1010.7
20260508020053 73 167 0.9 1.7 0.00 0.00 0.00 76 1010.7
20260508015550 73 63 0.9 1.7 0.00 0.00 0.00 76 1010.6
20260508015047 73 158 0.9 1.7 0.00 0.00 0.00 76 1010.8
20260508014543 73 75 0.0 3.5 0.00 0.00 0.00 77 1010.6
20260508014040 73 82 1.7 2.6 0.00 0.00 0.00 76 1010.7
20260508013536 73 112 0.0 0.0 0.00 0.00 0.00 77 1010.8
20260508013033 73 159 1.7 2.6 0.00 0.00 0.00 76 1010.9
20260508012530 72 123 0.0 0.9 0.00 0.00 0.00 78 1010.8
20260508012028 72 89 0.0 1.7 0.00 0.00 0.00 78 1010.9
20260508011526 72 122 2.6 2.6 0.00 0.00 0.00 77 1010.9
20260508011023 71 185 0.9 2.6 0.00 0.00 0.00 79 1010.9
20260508010519 72 130 2.6 2.6 0.00 0.00 0.00 78 1011.1
20260508010017 71 105 0.0 2.6 0.00 0.00 0.00 79 1011.0
20260508005513 71 115 0.0 2.6 0.00 0.00 0.00 79 1011.2
20260508005010 71 137 1.7 1.7 0.00 0.00 0.00 78 1011.1
20260508004506 71 107 0.0 1.7 0.00 0.00 0.00 80 1011.4
20260508004003 71 174 1.7 2.6 0.00 0.00 0.00 79 1011.5
20260508003500 71 175 2.6 2.6 0.00 0.00 0.00 79 1011.6
20260508002957 71 87 1.7 5.2 0.00 0.00 0.00 79 1011.5
20260508002453 71 151 0.0 1.7 0.00 0.00 0.00 82 1011.5
20260508001949 70 126 0.9 1.7 0.00 0.00 0.00 83 1011.5
20260508001446 69 99 0.0 0.0 0.00 0.00 0.00 84 1011.5
20260508000942 69 203 0.0 0.9 0.00 0.00 0.00 85 1011.7
20260508000438 69 350 0.0 0.9 0.00 0.00 0.00 85 1011.6
20260507235935 69 120 0.9 0.9 0.00 0.00 0.00 85 1011.5
20260507235432 69 164 0.0 0.9 0.00 0.00 0.00 85 1011.9
20260507234930 69 145 0.0 1.7 0.00 0.00 0.00 86 1011.9
20260507234426 68 164 0.0 0.9 0.00 0.00 0.00 87 1011.9
20260507233922 68 296 1.7 2.6 0.00 0.00 0.00 86 1012.0
20260507233420 68 77 1.7 1.7 0.00 0.00 0.00 86 1011.9
20260507232918 68 160 0.9 0.9 0.00 0.00 0.00 87 1011.8
20260507232414 67 154 0.0 0.9 0.00 0.00 0.00 87 1012.1
20260507231912 67 188 0.9 2.6 0.00 0.00 0.00 88 1012.0
20260507231408 68 270 1.7 2.6 0.00 0.00 0.00 87 1011.9
20260507230904 67 179 0.0 0.9 0.00 0.00 0.00 88 1011.8
20260507230402 67 174 0.0 0.9 0.00 0.00 0.00 88 1011.8
20260507225902 67 182 0.9 0.9 0.00 0.00 0.00 87 1011.7
20260507225358 67 229 0.0 0.9 0.00 0.00 0.00 88 1011.7
20260507224854 67 229 0.0 0.0 0.00 0.00 0.00 88 1011.9
20260507224351 67 287 0.9 1.7 0.00 0.00 0.00 88 1011.9
20260507223847 67 298 0.9 1.7 0.00 0.00 0.00 89 1012.2
20260507223344 67 247 0.9 0.9 0.00 0.00 0.00 89 1012.3
20260507222841 67 174 0.0 0.0 0.00 0.00 0.00 90 1012.4
20260507222337 67 175 0.9 0.9 0.00 0.00 0.00 90 1012.4
20260507221834 67 162 0.0 0.0 0.00 0.00 0.00 90 1012.3
20260507221330 67 188 0.9 0.9 0.00 0.00 0.00 89 1012.4
20260507220826 67 270 0.9 1.7 0.00 0.00 0.00 89 1012.1
20260507220325 67 202 0.9 1.7 0.00 0.00 0.00 89 1012.1
20260507215821 67 287 0.9 0.9 0.00 0.00 0.00 89 1012.5
20260507215319 67 167 0.0 0.0 0.00 0.00 0.00 90 1012.4
20260507214816 66 90 0.9 0.9 0.00 0.00 0.00 90 1012.4
20260507214314 66 63 0.0 0.0 0.00 0.00 0.00 91 1012.0
20260507213813 66 270 1.7 2.6 0.00 0.00 0.00 90 1012.4
20260507213311 66 49 0.0 0.9 0.00 0.00 0.00 90 1012.2
20260507212808 66 12 1.7 2.6 0.00 0.00 0.00 91 1012.1
20260507212307 66 287 0.9 1.7 0.00 0.00 0.00 91 1012.3
20260507211800 66 156 0.0 0.0 0.00 0.00 0.00 92 1012.2
20260507211257 65 173 0.0 0.9 0.00 0.00 0.00 92 1012.0
20260507210754 65 257 0.0 0.0 0.00 0.00 0.00 92 1012.2
20260507210251 65 65 0.0 0.0 0.00 0.00 0.00 92 1012.0
20260507205747 65 65 0.0 0.0 0.00 0.00 0.00 92 1012.2
20260507205244 65 52 0.0 0.0 0.00 0.00 0.00 92 1012.3
20260507204740 65 278 0.0 0.0 0.00 0.00 0.00 92 1012.5
20260507204238 65 169 0.0 0.0 0.00 0.00 0.00 92 1012.3
20260507203736 65 169 0.0 0.0 0.00 0.00 0.00 92 1012.3
20260507203233 64 155 0.0 0.9 0.00 0.00 0.00 93 1012.3
20260507202729 64 213 0.9 1.7 0.00 0.00 0.00 93 1012.3
20260507202225 64 155 1.7 3.5 0.00 0.00 0.00 93 1011.9
20260507201720 64 135 3.5 3.5 0.00 0.00 0.00 93 1012.0
20260507201218 64 143 1.7 2.6 0.00 0.00 0.00 93 1012.3
20260507200714 64 163 0.0 0.9 0.00 0.00 0.00 93 1012.4
20260507200210 64 150 0.0 0.9 0.00 0.00 0.00 93 1012.5
20260507195706 64 183 0.9 0.9 0.00 0.00 0.00 93 1012.4
20260507195203 64 165 0.9 1.7 0.00 0.00 0.00 93 1012.3
20260507194700 64 161 0.0 0.9 0.00 0.00 0.00 93 1012.3
20260507194156 64 135 0.0 1.7 0.00 0.00 0.00 93 1012.7
20260507193653 64 153 0.0 0.0 0.00 0.00 0.00 92 1012.6
20260507193150 65 264 1.7 2.6 0.00 0.00 0.00 92 1012.8
20260507192646 65 286 2.6 2.6 0.00 0.00 0.00 92 1012.7
20260507192144 65 62 0.9 1.7 0.00 0.00 0.00 92 1012.5
20260507191639 65 272 3.5 3.5 0.00 0.00 0.00 92 1012.6
20260507191136 65 265 3.5 3.5 0.00 0.00 0.00 93 1012.5
20260507190633 65 226 0.9 1.7 0.00 0.00 0.00 93 1012.2
20260507190132 64 281 0.9 1.7 0.00 0.00 0.00 93 1012.5
20260507185630 64 257 0.9 1.7 0.00 0.00 0.00 94 1012.3
20260507185126 64 188 0.0 0.0 0.00 0.00 0.00 94 1012.5
20260507184624 64 176 0.0 0.0 0.00 0.00 0.00 94 1012.5
20260507184122 64 174 0.0 0.0 0.00 0.00 0.00 94 1012.4
20260507183618 64 193 0.0 0.0 0.00 0.00 0.00 94 1012.2
20260507183115 64 234 0.0 0.0 0.00 0.00 0.00 94 1012.3
20260507182611 64 170 0.0 0.0 0.00 0.00 0.00 94 1012.3
20260507182107 64 167 0.0 0.0 0.00 0.00 0.00 94 1012.2
20260507181604 64 159 0.0 0.0 0.00 0.00 0.00 93 1012.3
20260507181100 64 159 0.0 0.0 0.00 0.00 0.00 93 1012.2
20260507180558 64 159 0.0 0.0 0.00 0.00 0.00 93 1012.3
20260507180054 64 159 0.0 0.0 0.00 0.00 0.00 93 1012.2
20260507175550 64 170 0.0 0.0 0.00 0.00 0.00 93 1012.4
20260507175048 64 171 0.9 0.9 0.00 0.00 0.00 93 1012.2
20260507174544 64 153 0.0 0.0 0.00 0.00 0.00 93 1012.2
20260507174043 64 162 0.0 0.9 0.00 0.00 0.00 93 1012.3
20260507173539 64 176 0.9 0.9 0.00 0.00 0.00 93 1012.3
20260507173036 64 182 0.0 0.9 0.00 0.00 0.00 92 1012.2
20260507172532 64 184 0.9 0.9 0.00 0.00 0.00 92 1012.1
20260507172029 64 158 0.0 0.0 0.00 0.00 0.00 92 1012.1
20260507171524 64 165 0.0 0.0 0.00 0.00 0.00 92 1012.0
20260507171022 64 166 0.0 0.0 0.00 0.00 0.00 92 1012.2
20260507170519 64 177 0.0 0.0 0.00 0.00 0.00 92 1012.4
20260507170016 64 180 0.0 0.0 0.00 0.00 0.00 92 1012.6
20260507165511 64 155 0.0 0.0 0.00 0.00 0.00 92 1012.5
20260507165008 64 180 0.0 0.0 0.00 0.00 0.00 91 1012.7
20260507164504 64 168 0.0 0.0 0.00 0.00 0.00 91 1012.7
20260507164001 64 178 0.0 0.0 0.00 0.00 0.00 91 1012.6
20260507163458 64 172 0.0 0.0 0.00 0.00 0.00 91 1012.9
20260507162955 64 259 0.9 1.7 0.00 0.00 0.00 91 1012.8
20260507162451 64 170 0.0 0.0 0.00 0.00 0.00 91 1012.9
20260507161948 64 256 0.9 1.7 0.00 0.00 0.00 92 1013.0
20260507161444 64 283 1.7 2.6 0.00 0.00 0.00 92 1013.0
20260507160941 64 254 0.0 0.0 0.00 0.00 0.00 91 1013.2
20260507160437 64 199 0.0 0.0 0.00 0.00 0.00 91 1013.0
20260507155933 64 170 0.0 0.0 0.00 0.00 0.00 90 1012.8
20260507155429 64 169 0.0 0.0 0.00 0.00 0.00 90 1012.9
20260507154926 64 143 0.0 0.0 0.00 0.00 0.00 90 1012.9
20260507154423 65 175 0.0 0.0 0.00 0.00 0.00 90 1012.9
20260507153921 65 197 0.0 0.0 0.00 0.00 0.00 89 1013.2
20260507153417 65 186 0.0 0.0 0.00 0.00 0.00 90 1013.2
20260507152913 65 166 0.0 0.0 0.00 0.00 0.00 89 1013.4
20260507152409 65 165 0.0 0.0 0.00 0.00 0.00 89 1013.4
20260507151906 65 184 0.0 0.0 0.00 0.00 0.00 88 1013.3
20260507151402 65 190 0.0 0.0 0.00 0.00 0.00 88 1013.3
20260507150859 65 195 0.0 0.0 0.00 0.00 0.00 88 1013.2
20260507150356 65 187 0.0 0.0 0.00 0.00 0.00 88 1013.3
20260507145852 65 186 0.0 0.0 0.00 0.00 0.00 88 1013.5
20260507145348 65 187 0.0 0.0 0.00 0.00 0.00 88 1013.4
20260507144846 65 197 0.0 0.0 0.00 0.00 0.00 87 1013.4
20260507144343 66 197 0.0 0.0 0.00 0.00 0.00 87 1013.6
20260507143839 66 197 0.0 0.0 0.00 0.00 0.00 87 1013.6
20260507143337 66 180 0.0 0.0 0.00 0.00 0.00 86 1013.7
20260507142832 66 172 0.0 0.0 0.00 0.00 0.00 86 1013.5
20260507142329 66 172 0.9 1.7 0.00 0.00 0.00 85 1013.7
20260507141826 66 186 0.0 0.9 0.00 0.00 0.00 84 1013.7
20260507141323 67 191 0.0 1.7 0.00 0.00 0.00 83 1013.9
20260507140819 67 174 0.0 1.7 0.00 0.00 0.00 83 1013.6
20260507140316 67 176 0.0 0.9 0.00 0.00 0.00 82 1013.7
20260507135814 67 155 0.0 0.0 0.00 0.00 0.00 82 1013.9
20260507135310 67 206 1.7 1.7 0.00 0.00 0.00 82 1013.7
20260507134808 67 169 0.9 2.6 0.00 0.00 0.00 82 1013.8
20260507134303 67 206 0.0 5.2 0.00 0.00 0.00 82 1013.7
20260507133759 67 157 1.7 3.5 0.00 0.00 0.00 82 1013.9
20260507133256 67 175 0.0 1.7 0.00 0.00 0.00 82 1013.9
20260507132754 68 139 0.9 2.6 0.00 0.00 0.00 81 1013.9
20260507132250 68 122 0.0 1.7 0.00 0.00 0.00 81 1014.0
20260507131747 68 170 0.0 3.5 0.00 0.00 0.00 81 1013.9
20260507131244 68 178 2.6 3.5 0.00 0.00 0.00 81 1013.9
20260507130741 68 152 0.9 1.7 0.00 0.00 0.00 81 1014.1
20260507130239 68 179 0.0 2.6 0.00 0.00 0.00 81 1014.1
20260507125737 68 175 0.9 3.5 0.00 0.00 0.00 82 1014.3
20260507125234 68 164 0.9 1.7 0.00 0.00 0.00 82 1014.0
20260507124731 68 214 0.0 0.0 0.00 0.00 0.00 82 1014.1
20260507124228 68 147 0.0 0.0 0.00 0.00 0.00 81 1014.1
20260507123726 68 138 0.0 0.9 0.00 0.00 0.00 81 1014.1
20260507123224 68 152 0.0 0.9 0.00 0.00 0.00 81 1014.3
20260507122718 68 129 0.0 0.9 0.00 0.00 0.00 81 1014.3
20260507122215 68 168 0.0 0.9 0.00 0.00 0.00 81 1014.5
20260507121710 68 184 0.9 1.7 0.00 0.00 0.00 80 1014.1
20260507121207 68 201 0.9 2.6 0.00 0.00 0.00 80 1014.1
20260507120703 68 190 0.9 2.6 0.00 0.00 0.00 80 1014.1
20260507120200 68 258 0.9 1.7 0.00 0.00 0.00 80 1014.2